STARLINK-1298, 45413

Orbit data source: Space-Track

STARLINK-1298, 45413 is a payload satellite owned by SpaceX/Seattle (US) in LEO that was launched on Wed, 18 Mar 2020 UTC via an FALCON 9 launch vehicle from the Air Force Eastern Test Range (AFETR). Payload-class satellites include a variety of spacecraft equipped with specific instruments for various scientific and technological missions. These include communications satellites like Starlink; space stations such as the ISS; scientific satellites like the Hubble; Earth observation satellites from companies like Planet Labs, Umbra, and HawkEye 360; GPS; miniature CubeSats for education and research; and military/defense satellites.

Loading next visibility...
Identifier
45413, 2020-019BF
Orbit
LEO
Country
Flag of USUS
Related business
Manufacturer
SpaceX/Seattle
Mission
Partially operational Commercial Communications
Bus & Motor
STARLINK, Unknown motor
Mass
260 kg wet, ~248 kg dry
Launch date (UTC)
2020-03-18 (6 years ago)
Launch vehicle
FALCON 9
Launch site
Air Force Eastern Test Range (AFETR)
Object type
Payload
Rocket body
Debris
Shape & HBR
Box + 1 Pan, 10.1 m
Radar Cross Section
13.562 m², Large (>1 m²)

Expand to show TLE details & history
Last TLE update: 9 hours ago

TLE from 9 hours ago
0 STARLINK-1298
1 45413U 20019BF  25296.45792008  .00116280  00000-0  19711-2 0  9997
2 45413  53.0502  11.3829 0007445 270.0551  89.9604 15.50638475309572
Epoch: 2025-10-23T10:59Z
TLE epoch observation values (Epoch: 2025-10-23T10:59:24.294Z)
Latitude
-0.00005°
Longitude
174.41475°
Altitude
415.757 km
Speed
7.663 km/s
True Right ascension
00h 45m 31s
True Declination
0° 00' 00"
Sunlit
Object was in full shadow at epoch
Visualization orbit readout
Latitude
Unknown
Longitude
Unknown
Altitude
Unknown
Speed
Unknown
Apparent Right ascension
Unknown
Apparent Declination
Unknown
Sunlit
N/A
Visualization observer readout
Local Sidereal Time
15:02:49
Azimuth
Unknown
Elevation
Unknown
Doppler factor
Unknown
Orbital elements
Apogee altitude
420.195 km
Perigee altitude
410.08 km
Semi-major axis
6,793.274 km
Eccentricity
0.00074
Inclination
53.0502°
RAAN
11.3829°
Arg. of periapsis
270.0551°
True anomaly
90.04571°
Mean anomaly
89.9604°
Eccentric anomaly
90.00306°
Mean motion
3.87636 °/min
Orbital period
92.87 mins
BSTAR
0.0019711
Loading maneuver chart data...
Computing Atmospheric mass density...
Loading historical data...
Loading historical data...
Loading historical data...
Loading historical data...
Loading historical data...
Loading historical data...
Loading historical data...

Documentation

Showing up to 5 results
|